Flag for Switzerland Weather past 2 weeks in Liestal, Basel-Land, Switzerland

Now
66 °F

Passing clouds.


Feels Like: 66 °F
Forecast: 43 / 69 °F
Wind: 5 mph from Southeast

Location: Bale-Mulhouse

Current Time: May 23, 2015 at 7:08:52 PM

Latest Report: May 23, 2015 at 6:30 PM


Visibility: N/A

Pressure: 30.01 "Hg

Humidity: 43%

Dew point: 43 °F

Location of LiestalLocation

Historic Weather in Liestal — Graph

°F

Liestal temperature yesterday

Maximum temperature yesterday: 66 °F (at 3:30 PM)
Minimum temperature yesterday: 39 °F (at 5:00 AM)
Average temperature yesterday: 53 °F

Past Weeks' High & Low Weather Summary

 TemperatureHumidityPressure
High88 °F (May 12, 4:00 PM)100% (May 10, 6:30 AM)30.36 "Hg (May 10, 6:30 AM)
Low39 °F (May 22, 5:00 AM)24% (May 12, 4:00 PM)29.77 "Hg (May 18, 6:30 PM)
Average59 °F69%30.10 "Hg
* Reported May 8 6:00 PM — May 23 6:00 PM, Liestal, Weather by CustomWeather, © 2015

Note: Actual official high and low records may vary slightly from our data, if they occured in-between our weather recording intervals... More about our weather records

Advertising

Liestal weather history for previous 24 hours

 ConditionsComfort  
Time TempWeatherWind HumidityBarometerVisibility
6:00 PM
Sat, May 23
66 °FPassing clouds.6 mph43%30.01 "HgN/A
5:30 PM68 °FPassing clouds.3 mph38%30.01 "HgN/A
5:00 PM68 °FSunny.2 mph40%30.01 "Hg10 mi
4:30 PM68 °FSunny.3 mph40%30.04 "Hg10 mi
4:00 PM66 °FPassing clouds.7 mph46%30.04 "HgN/A
3:30 PM66 °FPassing clouds.7 mph46%30.04 "HgN/A
3:00 PM66 °FSunny.2 mph46%30.04 "Hg10 mi
2:30 PM66 °FBroken clouds.6 mph43%30.04 "HgN/A
2:00 PM66 °FBroken clouds.6 mph49%30.04 "HgN/A
1:30 PM64 °FBroken clouds.6 mph46%30.07 "HgN/A
1:00 PM64 °FBroken clouds.7 mph46%30.07 "HgN/A
12:30 PM64 °FBroken clouds.3 mph49%30.07 "HgN/A
12:00 PM63 °FBroken clouds.3 mph49%30.07 "HgN/A
11:30 AM63 °FBroken clouds.3 mph49%30.09 "HgN/A
11:00 AM61 °FPartly sunny.3 mph52%30.09 "HgN/A
10:30 AM61 °FPartly sunny.2 mph55%30.09 "HgN/A
10:00 AM57 °FSunny.2 mph63%30.09 "Hg10 mi
9:30 AM54 °FSunny.2 mph72%30.09 "Hg10 mi
9:00 AM54 °FSunny.1 mph72%30.09 "Hg10 mi
8:30 AM54 °FSunny.No wind77%30.09 "Hg10 mi
8:00 AM50 °FSunny.1 mph88%30.09 "Hg10 mi
7:30 AM48 °FSunny.1 mph94%30.09 "Hg10 mi
7:00 AM46 °FSunny.1 mph93%30.09 "Hg10 mi
6:30 AM45 °FClear.No wind93%30.09 "Hg10 mi
6:00 AM43 °FClear.1 mph100%30.09 "Hg10 mi
5:30 AM45 °FClear.No wind93%30.09 "Hg10 mi
5:00 AM45 °FClear.No wind93%30.09 "Hg10 mi
4:30 AM45 °FClear.1 mph93%30.09 "Hg6 mi
4:00 AM46 °FClear.2 mph93%30.09 "Hg10 mi
3:30 AM45 °FClear.2 mph93%30.12 "Hg10 mi
3:00 AM45 °FClear.1 mph87%30.12 "Hg10 mi
2:30 AM46 °FClear.No wind93%30.12 "Hg10 mi
2:00 AM46 °FClear.No wind87%30.12 "Hg10 mi
1:30 AM48 °FClear.2 mph87%30.12 "Hg10 mi
1:00 AM48 °FClear.1 mph87%30.15 "Hg10 mi
12:30 AM48 °FPassing clouds.5 mph87%30.15 "HgN/A
12:00 AM50 °FClear.3 mph82%30.15 "Hg10 mi
11:30 PM
Fri, May 22
48 °FClear.No wind82%30.15 "Hg10 mi
11:00 PM50 °FClear.No wind82%30.15 "Hg10 mi
10:30 PM52 °FClear.No wind77%30.15 "Hg10 mi
10:00 PM54 °FSunny.3 mph72%30.15 "Hg10 mi
9:30 PM59 °FSunny.3 mph55%30.15 "Hg10 mi
9:00 PM61 °FSunny.2 mph52%30.15 "Hg10 mi
8:30 PM61 °FPassing clouds.6 mph48%30.15 "HgN/A
8:00 PM61 °FPassing clouds.6 mph48%30.15 "HgN/A
7:30 PM63 °FPassing clouds.3 mph42%30.15 "HgN/A
7:00 PM63 °FPassing clouds.3 mph49%30.15 "HgN/A
Weather by CustomWeather, © 2015

See weather overviewHow to use our weather pages